Weather History for KBIX - August, 2014

Change the Weather History Date:

Tuesday, August 26, 2014

  Actual Average Record
Temperature  
Mean Temperature 82 °F -  
Max Temperature 92 °F 89 °F 100 °F (2011)
Min Temperature 73 °F 73 °F 65 °F (1966)
Cooling Degree Days 16    
Growing Degree Days 32 (Base 50)    
Moisture  
Dew Point 70 °F    
Average Humidity 66    
Maximum Humidity 84    
Minimum Humidity 45    
Precipitation  
Precipitation 0.00 in - - ()
Sea Level Pressure  
Sea Level Pressure 29.98 in    
Wind  
Wind Speed 7 mph (East)    
Max Wind Speed 13 mph    
Max Gust Speed -    
Visibility 10 miles    
Events      
Averages and records for this station are not official NWS values.
T = Trace of Precipitation, MM = Missing Value Source: NWS Daily Summary

Daily Weather History Graph

Daily Weather History Graph

Search for Another Location

Airport or City:

Trip Planner

Search our weather history database for the weather conditions in past years. The results will help you decide how hot, cold, wet, or windy it might be!

Date:

Astronomy

Aug. 26, 2014 Rise Set
Actual Time 6:28 AM CDT 7:25 PM CDT
Civil Twilight 6:04 AM CDT 7:50 PM CDT
Nautical Twilight 5:35 AM CDT 8:19 PM CDT
Astronomical Twilight 5:05 AM CDT 8:49 PM CDT
Moon 7:22 AM CDT (8/26) 7:55 PM CDT (8/26)
Length of Visible Light 13h 45m
Length of Day
12h 56m
New Moon, 1% of the Moon is Illuminated
Aug 26
New Moon
Sep 2
First Quarter
Sep 8
Full
Sep 15
Last Quarter
Sep 24
New

Hourly Weather History & Observations

Time (CDT) Temp. Heat Index Dew Point Humidity Pressure Visibility Wind Dir Wind Speed Gust Speed Precip Events Conditions
12:58 AM 78.8 °F - 68.7 °F 71% 29.95 in 10.0 mi ENE 5.8 mph - N/A   Clear
1:58 AM 77.5 °F - 68.9 °F 75% 29.95 in 10.0 mi ENE 6.9 mph - N/A   Clear
2:58 AM 75.9 °F - 68.4 °F 77% 29.94 in 10.0 mi NE 6.9 mph - N/A   Clear
3:58 AM 75.6 °F - 67.8 °F 77% 29.94 in 10.0 mi ENE 6.9 mph - N/A   Clear
4:58 AM 75.0 °F - 67.1 °F 76% 29.96 in 10.0 mi ENE 8.1 mph - N/A   Clear
5:58 AM 73.9 °F - 67.5 °F 80% 29.97 in 10.0 mi NE 6.9 mph - N/A   Clear
6:58 AM 73.9 °F - 66.4 °F 77% 29.98 in 10.0 mi ENE 9.2 mph - N/A   Clear
7:58 AM 77.4 °F - 66.0 °F 68% 30.00 in 10.0 mi ENE 9.2 mph - N/A   Clear
8:58 AM 81.9 °F 84.4 °F 67.3 °F 61% 30.01 in 10.0 mi East 11.5 mph - N/A   Clear
9:58 AM 85.6 °F 89.1 °F 68.5 °F 56% 30.02 in 10.0 mi ENE 8.1 mph - N/A   Clear
10:58 AM 87.4 °F 91.9 °F 69.3 °F 55% 30.03 in 10.0 mi Variable 6.9 mph - N/A   Clear
11:58 AM 89.8 °F 93.8 °F 68.2 °F 49% 30.03 in 10.0 mi ENE 8.1 mph - N/A   Clear
12:58 PM 90.0 °F 92.4 °F 65.8 °F 45% 30.01 in 10.0 mi Variable 5.8 mph - N/A   Partly Cloudy
1:58 PM 88.3 °F 93.6 °F 70.2 °F 55% 30.00 in 10.0 mi SSE 11.5 mph - N/A   Scattered Clouds
2:58 PM 87.8 °F 93.8 °F 71.6 °F 58% 29.99 in 10.0 mi SSE 12.7 mph - N/A   Partly Cloudy
3:58 PM 89.4 °F 95.8 °F 71.2 °F 55% 29.98 in 10.0 mi SSE 10.4 mph - N/A   Clear
4:58 PM 87.8 °F 94.7 °F 72.3 °F 60% 29.97 in 10.0 mi SSE 10.4 mph - N/A   Clear
5:58 PM 86.0 °F 93.0 °F 72.9 °F 65% 29.97 in 10.0 mi SSE 8.1 mph - N/A   Clear
6:58 PM 84.9 °F 91.1 °F 72.5 °F 66% 29.97 in 10.0 mi Variable 5.8 mph - N/A   Clear
7:58 PM 84.0 °F 90.2 °F 73.0 °F 69% 29.98 in 10.0 mi SE 4.6 mph - N/A   Clear
8:58 PM 83.8 °F 89.5 °F 72.1 °F 68% 29.99 in 10.0 mi ESE 5.8 mph - N/A   Clear
9:58 PM 83.7 °F 89.2 °F 72.0 °F 68% 30.00 in 10.0 mi ESE 2.3 mph - N/A   Clear
10:58 PM 80.1 °F 84.4 °F 73.2 °F 80% 29.99 in 10.0 mi NE 4.6 mph - N/A   Clear
11:58 PM 78.4 °F - 73.4 °F 84% 29.99 in 10.0 mi NE 3.5 mph - N/A   Clear